Location: Chipmunk Meadow
(41.1540°N, 122.8814°W)
Time: 15:37:15
(UTC+00:00)

CRYOSAT 2 - Pass Details

Date: 13 April 2024
Orbit: 716 x 722 km, 92.0° (Epoch: 21 May)

Event Time Altitude Azimuth Distance (km) Brightness Sun altitude
Rises 12:34:28 0° 2° (N) 3,136 8.0 -11.5°
Reaches altitude 10° 12:36:46 10° 0° (N) 2,211 7.2 -11.1°
Maximum altitude 12:41:38 71° 278° (W) 760 4.3 -10.3°
Drops below altitude 10° 12:46:27 10° 194° (SSW) 2,192 6.5 -9.4°
Sets 12:48:44 0° 192° (SSW) 3,107 7.3 -9.0°
